• In Uzbekistan
  • List of Countries
  • For 7 days
  • Water Temperature
  • Satellite Maps
  • Weather Map
  • Weather Widgets
  • user-avatar
    Login

    Hourly Weather Manaus

    Today, 16 December, Saturday

    Time Temperature Precipitation Wind Pressure Humidity
    00:00 +26°C° 0 mm 1 mps 753 mmHg 89%
    01:00 +26°C° 0 mm 1 mps 753 mmHg 90%
    02:00 +25°C° 0 mm 1 mps 753 mmHg 91%
    03:00 +25°C° 0 mm 1 mps 753 mmHg 91%
    04:00 +25°C° 0 mm 1 mps 753 mmHg 92%
    05:00 +25°C° 0 mm 1 mps 753 mmHg 93%
    06:00 +26°C° 0 mm 1 mps 754 mmHg 87%
    07:00 +28°C° 0 mm 1 mps 754 mmHg 81%
    08:00 +29°C° 0 mm 2 mps 755 mmHg 75%
    09:00 +30°C° 1 mm 2 mps 754 mmHg 76%
    10:00 +30°C° 1 mm 2 mps 754 mmHg 76%
    11:00 +31°C° 1 mm 2 mps 754 mmHg 77%
    12:00 +31°C° 1.2 mm 2 mps 753 mmHg 78%
    13:00 +31°C° 1.2 mm 2 mps 753 mmHg 78%
    14:00 +31°C° 1.2 mm 2 mps 752 mmHg 79%
    15:00 +31°C° 1.4 mm 1 mps 751 mmHg 81%
    16:00 +31°C° 1.4 mm 1 mps 751 mmHg 84%
    17:00 +30°C° 1.4 mm 1 mps 750 mmHg 86%
    18:00 +29°C° 1.1 mm 1 mps 751 mmHg 89%
    19:00 +28°C° 1.1 mm 1 mps 751 mmHg 92%
    20:00 +27°C° 1.1 mm 1 mps 752 mmHg 94%
    21:00 +27°C° 0.8 mm 1 mps 752 mmHg 94%
    22:00 +24°C° 0.8 mm 0 mps 753 mmHg 94%
    23:00 +24°C° 0.8 mm 0 mps 753 mmHg 94%

    Tomorrow, 17 December, Sunday

    Time Temperature Precipitation Wind Pressure Humidity
    00:00 +24°C° 0.2 mm 0 mps 753 mmHg 95%
    01:00 +24°C° 0.2 mm 0 mps 753 mmHg 95%
    02:00 +26°C° 0.2 mm 1 mps 752 mmHg 95%
    03:00 +26°C° 0.3 mm 1 mps 752 mmHg 95%
    04:00 +26°C° 0.3 mm 1 mps 752 mmHg 95%
    05:00 +25°C° 0.3 mm 1 mps 752 mmHg 95%
    06:00 +26°C° 0.2 mm 1 mps 753 mmHg 92%
    07:00 +27°C° 0.2 mm 2 mps 753 mmHg 88%
    08:00 +28°C° 0.2 mm 2 mps 754 mmHg 85%
    09:00 +30°C° 0.3 mm 2 mps 754 mmHg 77%
    10:00 +31°C° 0.3 mm 2 mps 754 mmHg 70%
    11:00 +34°C° 0.3 mm 3 mps 754 mmHg 62%
    12:00 +35°C° 0 mm 2 mps 753 mmHg 57%
    13:00 +36°C° 0 mm 2 mps 752 mmHg 51%
    14:00 +37°C° 0 mm 2 mps 752 mmHg 46%
    15:00 +35°C° 0 mm 1 mps 751 mmHg 52%
    16:00 +34°C° 0 mm 1 mps 751 mmHg 58%
    17:00 +30°C° 0 mm 0 mps 751 mmHg 64%
    18:00 +29°C° 0 mm 0 mps 751 mmHg 67%
    19:00 +28°C° 0 mm 0 mps 752 mmHg 71%
    20:00 +27°C° 0 mm 0 mps 752 mmHg 74%
    21:00 +27°C° 0.4 mm 0 mps 752 mmHg 79%
    22:00 +26°C° 0.4 mm 0 mps 753 mmHg 83%
    23:00 +25°C° 0.4 mm 0 mps 753 mmHg 87%

    Day after tomorrow, 18 December, Monday

    Time Temperature Precipitation Wind Pressure Humidity
    00:00 +25°C° 0.5 mm 0 mps 753 mmHg 89%
    01:00 +25°C° 0.5 mm 0 mps 752 mmHg 91%
    02:00 +26°C° 0.5 mm 1 mps 752 mmHg 93%
    03:00 +24°C° 1.5 mm 0 mps 752 mmHg 94%
    04:00 +24°C° 1.5 mm 0 mps 752 mmHg 95%
    05:00 +24°C° 1.5 mm 0 mps 752 mmHg 97%
    06:00 +26°C° 2.7 mm 1 mps 753 mmHg 96%
    07:00 +26°C° 2.7 mm 1 mps 754 mmHg 95%
    08:00 +27°C° 2.7 mm 1 mps 755 mmHg 94%
    09:00 +27°C° 2.5 mm 1 mps 755 mmHg 94%
    10:00 +27°C° 2.5 mm 1 mps 755 mmHg 94%
    11:00 +27°C° 2.5 mm 1 mps 755 mmHg 94%
    12:00 +27°C° 2.1 mm 1 mps 755 mmHg 94%
    13:00 +27°C° 2.1 mm 1 mps 754 mmHg 94%
    14:00 +27°C° 2.1 mm 1 mps 753 mmHg 94%
    15:00 +27°C° 1.2 mm 1 mps 753 mmHg 95%
    16:00 +26°C° 1.2 mm 1 mps 753 mmHg 96%
    17:00 +24°C° 1.2 mm 0 mps 753 mmHg 96%
    18:00 +26°C° 0.4 mm 1 mps 753 mmHg 97%
    19:00 +26°C° 0.4 mm 1 mps 754 mmHg 97%
    20:00 +26°C° 0.4 mm 1 mps 754 mmHg 98%
    21:00 +25°C° 0.3 mm 1 mps 754 mmHg 98%
    22:00 +25°C° 0.3 mm 1 mps 755 mmHg 98%
    23:00 +25°C° 0.3 mm 1 mps 755 mmHg 98%

    19 December, Tuesday

    Time Temperature Precipitation Wind Pressure Humidity
    00:00 +25°C° 0.1 mm 1 mps 755 mmHg 98%
    01:00 +25°C° 0.1 mm 1 mps 754 mmHg 98%
    02:00 +25°C° 0.1 mm 1 mps 754 mmHg 97%
    03:00 +25°C° 0.1 mm 1 mps 753 mmHg 97%
    04:00 +25°C° 0.1 mm 1 mps 753 mmHg 97%
    05:00 +25°C° 0.1 mm 1 mps 753 mmHg 97%
    06:00 +25°C° 0 mm 1 mps 754 mmHg 96%
    07:00 +25°C° 0 mm 1 mps 755 mmHg 95%
    08:00 +26°C° 0 mm 1 mps 755 mmHg 94%
    09:00 +27°C° 0 mm 1 mps 755 mmHg 89%
    10:00 +28°C° 0 mm 1 mps 755 mmHg 84%
    11:00 +29°C° 0 mm 1 mps 755 mmHg 79%
    12:00 +29°C° 0.4 mm 1 mps 755 mmHg 79%
    13:00 +30°C° 0.4 mm 1 mps 754 mmHg 79%
    14:00 +30°C° 0.4 mm 1 mps 753 mmHg 78%
    15:00 +30°C° 0.6 mm 1 mps 752 mmHg 80%
    16:00 +29°C° 0.6 mm 1 mps 752 mmHg 81%
    17:00 +29°C° 0.6 mm 1 mps 752 mmHg 83%
    18:00 +26°C° 0.3 mm 0 mps 752 mmHg 86%
    19:00 +25°C° 0.3 mm 0 mps 753 mmHg 89%
    20:00 +24°C° 0.3 mm 0 mps 753 mmHg 92%
    21:00 +24°C° 0 mm 0 mps 753 mmHg 93%
    22:00 +24°C° 0 mm 0 mps 754 mmHg 93%
    23:00 +24°C° 0 mm 0 mps 754 mmHg 94%

    20 December, Wednesday

    Time Temperature Precipitation Wind Pressure Humidity
    00:00 +23°C° 0.2 mm 0 mps 754 mmHg 94%
    01:00 +23°C° 0.2 mm 0 mps 753 mmHg 95%
    02:00 +23°C° 0.2 mm 0 mps 753 mmHg 95%
    03:00 +23°C° 0.1 mm 0 mps 753 mmHg 95%
    04:00 +23°C° 0.1 mm 0 mps 753 mmHg 95%
    05:00 +25°C° 0.1 mm 1 mps 753 mmHg 96%
    06:00 +26°C° 0 mm 1 mps 754 mmHg 93%
    07:00 +26°C° 0 mm 1 mps 754 mmHg 90%
    08:00 +27°C° 0 mm 1 mps 755 mmHg 87%
    09:00 +29°C° 0.9 mm 1 mps 755 mmHg 84%
    10:00 +30°C° 0.9 mm 1 mps 754 mmHg 80%
    11:00 +31°C° 0.9 mm 1 mps 754 mmHg 77%
    12:00 +31°C° 1.2 mm 1 mps 753 mmHg 77%
    13:00 +31°C° 1.2 mm 1 mps 752 mmHg 77%
    14:00 +31°C° 1.2 mm 1 mps 751 mmHg 77%
    15:00 +31°C° 1.8 mm 1 mps 751 mmHg 81%
    16:00 +30°C° 1.8 mm 1 mps 750 mmHg 84%
    17:00 +30°C° 1.8 mm 1 mps 750 mmHg 87%
    18:00 +29°C° 1.1 mm 1 mps 751 mmHg 90%
    19:00 +26°C° 1.1 mm 0 mps 751 mmHg 92%
    20:00 +25°C° 1.1 mm 0 mps 752 mmHg 94%
    21:00 +24°C° 0.9 mm 0 mps 752 mmHg 94%
    22:00 +24°C° 0.9 mm 0 mps 753 mmHg 94%
    23:00 +24°C° 0.9 mm 0 mps 753 mmHg 95%

    21 December, Thursday

    Time Temperature Precipitation Wind Pressure Humidity
    00:00 +24°C° 0.2 mm 0 mps 752 mmHg 95%
    01:00 +24°C° 0.2 mm 0 mps 752 mmHg 95%
    02:00 +24°C° 0.2 mm 0 mps 751 mmHg 96%
    03:00 +24°C° 0 mm 0 mps 751 mmHg 96%
    04:00 +24°C° 0 mm 0 mps 752 mmHg 96%
    05:00 +24°C° 0 mm 0 mps 752 mmHg 96%
    06:00 +24°C° 0.8 mm 0 mps 752 mmHg 94%
    07:00 +25°C° 0.8 mm 0 mps 753 mmHg 93%
    08:00 +26°C° 0.8 mm 0 mps 754 mmHg 92%
    09:00 +29°C° 1.8 mm 1 mps 754 mmHg 90%
    10:00 +29°C° 1.8 mm 1 mps 754 mmHg 88%
    11:00 +30°C° 1.8 mm 2 mps 753 mmHg 87%
    12:00 +30°C° 1.5 mm 2 mps 753 mmHg 84%
    13:00 +31°C° 1.5 mm 2 mps 752 mmHg 81%
    14:00 +31°C° 1.5 mm 2 mps 751 mmHg 78%
    15:00 +31°C° 1 mm 2 mps 751 mmHg 77%
    16:00 +31°C° 1 mm 1 mps 750 mmHg 75%
    17:00 +31°C° 1 mm 1 mps 750 mmHg 74%
    18:00 +30°C° 0.1 mm 1 mps 751 mmHg 78%
    19:00 +27°C° 0.1 mm 0 mps 751 mmHg 82%
    20:00 +25°C° 0.1 mm 0 mps 752 mmHg 87%
    21:00 +25°C° 0.2 mm 0 mps 752 mmHg 89%
    22:00 +25°C° 0.2 mm 0 mps 752 mmHg 90%
    23:00 +24°C° 0.2 mm 0 mps 752 mmHg 92%
    Show more